Precipitable_Water
1.29 1.25 1.30 1.26 1.24 1.20 1.18 1.18 1.20 1.24 1.25 1.26 1.24 1.23 1.23 1.23 1.19 1.18 1.19 1.14 1.15 1.16 1.21 1.23 1.30 1.28 1.25 1.26 1.23 1.22 1.24 1.28 1.32 1.32 1.31 1.31 1.34 1.33 1.39 1.40 1.35 1.34 1.35 1.39 1.43 1.41 1.37 1.35 1.36 1.41 1.46 1.41 1.39 1.40 1.37 1.42 1.45 1.42 1.43 1.42 1.38 1.35 1.26 1.16 1.01 0.95 1.06 1.23 1.19 1.16 1.21 1.23 1.16 1.20 1.24 1.42 1.44 1.48 1.57 1.59 1.59 1.54 1.50 1.47 1.48
1.30 1.27 1.27 1.24 1.21 1.20 1.20 1.20 1.20 1.21 1.21 1.24 1.24 1.25 1.24 1.24 1.23 1.20 1.18 1.18 1.17 1.12 1.16 1.19 1.25 1.27 1.28 1.27 1.26 1.27 1.26 1.26 1.27 1.27 1.24 1.21 1.24 1.31 1.29 1.34 1.33 1.35 1.37 1.30 1.30 1.36 1.39 1.34 1.33 1.37 1.43 1.36 1.34 1.35 1.36 1.39 1.43 1.42 1.41 1.40 1.34 1.32 1.36 1.23 1.15 1.07 0.95 1.11 1.14 1.21 1.20 1.29 1.16 1.29 1.35 1.45 1.49 1.58 1.56 1.57 1.59 1.57 1.53 1.58 1.67
1.39 1.34 1.26 1.22 1.22 1.21 1.24 1.22 1.22 1.20 1.18 1.20 1.20 1.24 1.24 1.24 1.26 1.19 1.18 1.17 1.18 1.14 1.13 1.15 1.20 1.22 1.22 1.25 1.25 1.27 1.28 1.29 1.27 1.23 1.19 1.15 1.13 1.17 1.20 1.20 1.25 1.29 1.33 1.33 1.31 1.31 1.29 1.32 1.35 1.37 1.39 1.33 1.32 1.29 1.34 1.35 1.38 1.39 1.43 1.45 1.39 1.36 1.38 1.35 1.24 1.09 1.03 1.02 1.15 1.11 1.13 1.22 1.22 1.26 1.38 1.44 1.46 1.46 1.41 1.41 1.45 1.53 1.64 1.75 1.78
1.47 1.37 1.31 1.25 1.22 1.21 1.21 1.24 1.22 1.21 1.17 1.18 1.16 1.23 1.26 1.23 1.25 1.22 1.17 1.18 1.14 1.15 1.14 1.13 1.19 1.19 1.17 1.20 1.18 1.19 1.25 1.23 1.21 1.19 1.15 1.12 1.10 1.11 1.16 1.15 1.14 1.18 1.24 1.28 1.29 1.28 1.23 1.21 1.24 1.32 1.35 1.31 1.33 1.33 1.33 1.28 1.29 1.28 1.27 1.32 1.33 1.31 1.34 1.36 1.33 1.17 1.11 0.99 1.02 1.05 1.13 1.15 1.19 1.31 1.39 1.45 1.45 1.46 1.51 1.57 1.65 1.69 1.78 1.82 1.81
1.59 1.46 1.36 1.27 1.22 1.17 1.16 1.20 1.20 1.19 1.17 1.18 1.17 1.21 1.25 1.24 1.22 1.21 1.16 1.16 1.16 1.13 1.14 1.12 1.13 1.16 1.14 1.16 1.15 1.11 1.17 1.16 1.14 1.14 1.15 1.13 1.10 1.10 1.11 1.13 1.11 1.10 1.15 1.21 1.25 1.22 1.22 1.22 1.24 1.25 1.28 1.25 1.28 1.31 1.34 1.32 1.32 1.25 1.22 1.22 1.18 1.14 1.13 1.14 1.10 1.09 1.02 0.93 0.92 1.04 1.15 1.18 1.24 1.29 1.41 1.44 1.49 1.56 1.68 1.69 1.74 1.77 1.81 1.84 1.84
1.67 1.58 1.47 1.32 1.21 1.17 1.14 1.14 1.15 1.16 1.16 1.18 1.18 1.20 1.24 1.24 1.20 1.20 1.18 1.12 1.17 1.15 1.13 1.12 1.10 1.10 1.11 1.13 1.16 1.11 1.12 1.13 1.12 1.11 1.11 1.11 1.10 1.11 1.12 1.10 1.09 1.07 1.07 1.12 1.16 1.20 1.18 1.18 1.22 1.29 1.28 1.23 1.23 1.30 1.36 1.35 1.36 1.33 1.29 1.25 1.26 1.27 1.24 1.24 1.23 1.16 1.10 1.03 1.01 0.97 1.08 1.11 1.18 1.35 1.56 1.66 1.60 1.62 1.69 1.74 1.79 1.83 1.81 1.79 1.82
1.72 1.64 1.54 1.40 1.27 1.21 1.15 1.12 1.12 1.15 1.18 1.21 1.24 1.24 1.23 1.24 1.23 1.17 1.17 1.11 1.13 1.15 1.12 1.13 1.15 1.11 1.08 1.09 1.10 1.11 1.09 1.11 1.11 1.09 1.09 1.10 1.09 1.08 1.10 1.10 1.07 1.06 1.06 1.07 1.11 1.15 1.16 1.20 1.23 1.26 1.26 1.27 1.28 1.30 1.35 1.37 1.36 1.33 1.33 1.29 1.29 1.26 1.22 1.18 1.18 1.15 1.10 1.06 1.05 1.06 1.06 1.19 1.31 1.36 1.61 1.76 1.78 1.76 1.66 1.65 1.64 1.77 1.82 1.77 1.71
1.71 1.66 1.58 1.47 1.38 1.29 1.24 1.18 1.17 1.16 1.19 1.21 1.26 1.28 1.24 1.24 1.27 1.24 1.20 1.11 1.08 1.14 1.14 1.11 1.15 1.17 1.12 1.08 1.08 1.10 1.08 1.08 1.09 1.08 1.07 1.07 1.07 1.06 1.06 1.09 1.07 1.05 1.04 1.07 1.11 1.15 1.18 1.18 1.20 1.24 1.25 1.25 1.23 1.27 1.32 1.31 1.35 1.29 1.28 1.27 1.28 1.25 1.20 1.18 1.18 1.15 1.09 1.06 1.01 0.99 1.08 1.13 1.30 1.45 1.59 1.72 1.72 1.76 1.82 1.71 1.56 1.58 1.65 1.76 1.80
1.70 1.66 1.61 1.51 1.45 1.43 1.39 1.32 1.26 1.21 1.20 1.19 1.22 1.25 1.24 1.25 1.30 1.29 1.22 1.15 1.11 1.09 1.18 1.18 1.13 1.14 1.17 1.12 1.11 1.12 1.09 1.06 1.07 1.06 1.02 1.01 1.03 1.03 1.03 1.03 1.03 1.02 1.02 1.05 1.10 1.13 1.18 1.23 1.24 1.24 1.28 1.29 1.26 1.25 1.25 1.26 1.25 1.21 1.23 1.25 1.24 1.22 1.19 1.18 1.13 1.07 1.03 0.98 0.92 0.99 1.06 1.19 1.32 1.39 1.48 1.60 1.63 1.63 1.74 1.76 1.65 1.67 1.68 1.68 1.78
1.67 1.65 1.61 1.56 1.56 1.53 1.49 1.43 1.33 1.27 1.22 1.17 1.18 1.21 1.24 1.26 1.28 1.30 1.25 1.20 1.17 1.10 1.10 1.20 1.18 1.13 1.15 1.15 1.14 1.13 1.11 1.09 1.05 1.03 0.99 0.95 0.96 0.98 1.02 1.02 1.02 1.01 1.01 1.01 1.05 1.12 1.15 1.17 1.17 1.21 1.25 1.28 1.29 1.29 1.28 1.28 1.27 1.21 1.21 1.25 1.20 1.15 1.12 1.09 1.06 1.04 0.99 0.92 0.90 0.97 1.07 1.18 1.30 1.37 1.46 1.63 1.73 1.79 1.73 1.69 1.58 1.63 1.66 1.64 1.71
1.65 1.64 1.64 1.66 1.65 1.62 1.55 1.49 1.44 1.34 1.26 1.22 1.19 1.20 1.22 1.26 1.26 1.28 1.28 1.24 1.19 1.15 1.12 1.18 1.20 1.18 1.14 1.14 1.11 1.11 1.13 1.11 1.06 1.01 0.95 0.94 0.93 0.93 0.95 1.00 1.01 1.01 1.01 1.00 0.96 1.00 1.07 1.12 1.11 1.11 1.20 1.27 1.30 1.29 1.27 1.26 1.22 1.18 1.16 1.15 1.16 1.12 1.06 1.02 1.00 1.03 0.97 0.93 0.95 1.06 1.13 1.21 1.34 1.46 1.52 1.58 1.71 1.70 1.68 1.66 1.61 1.61 1.57 1.48 1.39
1.61 1.63 1.69 1.72 1.70 1.65 1.59 1.55 1.48 1.42 1.37 1.27 1.21 1.20 1.23 1.25 1.23 1.24 1.27 1.25 1.22 1.20 1.13 1.13 1.20 1.23 1.20 1.19 1.14 1.10 1.11 1.13 1.08 1.01 0.97 0.94 0.93 0.91 0.93 0.96 1.01 1.01 1.01 1.00 1.00 0.98 0.98 1.04 1.09 1.11 1.10 1.10 1.23 1.25 1.21 1.17 1.14 1.11 1.09 1.08 1.08 1.07 1.03 0.96 0.91 0.90 0.94 0.92 0.94 1.05 1.15 1.22 1.32 1.44 1.52 1.61 1.64 1.67 1.68 1.66 1.62 1.60 1.58 1.54 1.56
1.64 1.63 1.67 1.70 1.70 1.69 1.65 1.59 1.52 1.47 1.44 1.37 1.30 1.24 1.22 1.23 1.21 1.20 1.22 1.26 1.25 1.20 1.14 1.12 1.13 1.21 1.24 1.19 1.17 1.15 1.10 1.12 1.10 1.04 0.98 0.96 0.94 0.93 0.92 0.92 0.94 0.99 1.00 0.99 0.98 0.98 0.96 0.94 0.95 1.02 1.07 1.14 1.18 1.21 1.17 1.14 1.12 1.09 1.09 1.10 1.08 1.04 0.99 0.97 0.98 0.93 0.92 0.92 0.91 0.97 1.08 1.18 1.23 1.36 1.52 1.59 1.71 1.59 1.64 1.61 1.63 1.64 1.65 1.61 1.63
1.63 1.61 1.64 1.67 1.69 1.71 1.68 1.62 1.56 1.52 1.50 1.47 1.40 1.30 1.23 1.21 1.22 1.22 1.23 1.27 1.25 1.22 1.20 1.15 1.13 1.14 1.21 1.23 1.19 1.20 1.19 1.15 1.11 1.05 0.99 0.95 0.94 0.94 0.93 0.94 0.94 0.96 1.02 1.03 1.01 0.98 0.97 0.94 0.90 0.87 0.90 0.95 1.08 1.18 1.23 1.16 1.12 1.10 1.09 1.08 1.04 1.01 0.99 0.97 0.97 0.98 1.00 0.97 0.95 0.93 1.06 1.23 1.23 1.35 1.52 1.62 1.59 1.59 1.62 1.60 1.66 1.63 1.63 1.63 1.69
1.61 1.62 1.62 1.65 1.69 1.70 1.69 1.64 1.59 1.57 1.55 1.53 1.49 1.41 1.31 1.26 1.25 1.25 1.23 1.23 1.25 1.25 1.22 1.19 1.17 1.16 1.17 1.25 1.25 1.20 1.22 1.22 1.18 1.12 1.07 1.01 0.97 0.95 0.96 0.99 1.01 1.01 1.05 1.11 1.09 1.04 1.01 1.00 0.97 0.93 0.93 0.92 0.91 0.99 1.11 1.16 1.12 1.09 1.07 1.04 1.03 1.01 1.00 0.99 0.99 1.01 1.04 1.06 1.06 1.10 1.18 1.32 1.40 1.50 1.60 1.69 1.72 1.80 1.81 1.73 1.74 1.74 1.75 1.74 1.61
1.57 1.61 1.61 1.64 1.66 1.70 1.69 1.67 1.65 1.60 1.57 1.56 1.53 1.47 1.41 1.33 1.27 1.28 1.25 1.26 1.31 1.34 1.32 1.28 1.22 1.19 1.18 1.18 1.22 1.21 1.22 1.24 1.21 1.16 1.11 1.08 1.08 1.08 1.05 1.00 0.98 1.04 1.10 1.12 1.13 1.13 1.10 1.06 1.01 0.98 0.97 0.98 0.98 0.99 1.04 1.12 1.13 1.09 1.06 1.06 1.06 1.06 1.04 1.07 1.14 1.20 1.24 1.28 1.30 1.35 1.42 1.50 1.56 1.60 1.69 1.74 1.79 1.85 1.87 1.87 1.85 1.76 1.58 1.41 1.31
1.52 1.52 1.55 1.61 1.66 1.71 1.71 1.69 1.68 1.64 1.60 1.55 1.53 1.52 1.47 1.43 1.38 1.35 1.25 1.25 1.26 1.28 1.29 1.28 1.28 1.24 1.21 1.18 1.15 1.18 1.22 1.24 1.24 1.20 1.15 1.13 1.14 1.14 1.10 1.03 0.98 0.97 1.05 1.13 1.17 1.20 1.18 1.13 1.07 1.04 1.03 1.00 1.01 1.05 1.06 1.09 1.10 1.09 1.06 1.05 1.07 1.09 1.10 1.23 1.31 1.33 1.35 1.40 1.46 1.52 1.58 1.61 1.63 1.68 1.72 1.77 1.78 1.82 1.78 1.63 1.52 1.47 1.32 1.23 1.29
1.48 1.51 1.53 1.59 1.64 1.70 1.73 1.73 1.69 1.67 1.63 1.55 1.54 1.57 1.58 1.53 1.44 1.40 1.27 1.25 1.27 1.28 1.30 1.29 1.29 1.27 1.23 1.19 1.15 1.12 1.18 1.23 1.21 1.20 1.16 1.16 1.16 1.13 1.10 1.05 1.00 0.96 0.97 1.05 1.11 1.14 1.16 1.15 1.13 1.09 1.05 1.02 1.04 1.07 1.09 1.10 1.06 1.06 1.06 1.01 0.98 0.96 0.98 1.08 1.17 1.29 1.38 1.41 1.45 1.50 1.56 1.61 1.64 1.68 1.70 1.72 1.75 1.78 1.64 1.43 1.40 1.33 1.25 1.29 1.25
1.42 1.45 1.50 1.60 1.68 1.75 1.78 1.75 1.72 1.69 1.66 1.62 1.62 1.62 1.61 1.57 1.51 1.45 1.33 1.30 1.32 1.34 1.31 1.27 1.25 1.28 1.28 1.26 1.25 1.16 1.13 1.20 1.19 1.18 1.16 1.15 1.17 1.18 1.15 1.10 1.03 1.01 0.97 0.94 0.98 1.02 1.06 1.09 1.09 1.09 1.07 1.03 1.03 1.06 1.09 1.12 1.09 1.08 1.09 1.06 0.98 0.91 0.94 1.09 1.18 1.25 1.36 1.38 1.43 1.49 1.51 1.57 1.62 1.63 1.68 1.71 1.72 1.71 1.63 1.46 1.39 1.32 1.30 1.32 1.28
1.36 1.47 1.56 1.63 1.70 1.74 1.75 1.76 1.75 1.72 1.70 1.71 1.71 1.73 1.76 1.66 1.57 1.49 1.39 1.31 1.26 1.27 1.30 1.29 1.26 1.25 1.28 1.27 1.27 1.24 1.16 1.18 1.16 1.14 1.12 1.11 1.14 1.16 1.17 1.10 1.03 1.03 1.04 1.01 0.96 0.96 0.97 0.98 1.02 1.03 1.02 1.03 1.01 1.01 1.04 1.10 1.09 1.11 1.16 1.12 1.05 0.97 1.12 1.23 1.33 1.36 1.42 1.44 1.45 1.48 1.50 1.60 1.65 1.63 1.63 1.61 1.59 1.55 1.52 1.49 1.47 1.48 1.42 1.34 1.23
1.42 1.50 1.55 1.60 1.66 1.69 1.76 1.77 1.71 1.73 1.76 1.73 1.74 1.76 1.74 1.68 1.63 1.51 1.38 1.32 1.24 1.22 1.24 1.24 1.24 1.25 1.28 1.29 1.29 1.32 1.27 1.23 1.23 1.18 1.14 1.12 1.13 1.15 1.15 1.10 1.09 1.09 1.08 1.07 1.05 1.02 1.03 1.03 1.04 1.04 1.01 0.99 0.99 1.00 1.03 1.06 1.10 1.13 1.18 1.15 1.16 1.28 1.34 1.33 1.38 1.41 1.42 1.45 1.47 1.47 1.49 1.52 1.52 1.55 1.55 1.56 1.50 1.49 1.54 1.59 1.61 1.64 1.45 1.28 1.21
1.45 1.50 1.53 1.56 1.62 1.68 1.73 1.75 1.75 1.75 1.79 1.79 1.72 1.71 1.77 1.76 1.65 1.52 1.42 1.32 1.25 1.20 1.18 1.19 1.20 1.21 1.24 1.28 1.30 1.33 1.37 1.33 1.29 1.26 1.21 1.16 1.15 1.16 1.16 1.14 1.16 1.14 1.12 1.12 1.13 1.12 1.13 1.16 1.13 1.13 1.10 1.06 1.04 1.04 1.07 1.09 1.12 1.16 1.19 1.27 1.30 1.32 1.33 1.38 1.41 1.40 1.37 1.38 1.40 1.39 1.41 1.41 1.42 1.42 1.46 1.46 1.37 1.38 1.48 1.58 1.59 1.52 1.45 1.38 1.29
1.47 1.49 1.53 1.54 1.61 1.68 1.72 1.73 1.74 1.77 1.76 1.76 1.70 1.67 1.74 1.70 1.61 1.50 1.41 1.33 1.27 1.24 1.21 1.18 1.16 1.17 1.20 1.25 1.30 1.33 1.38 1.41 1.34 1.29 1.27 1.23 1.20 1.20 1.20 1.23 1.25 1.25 1.20 1.17 1.18 1.20 1.25 1.27 1.30 1.29 1.24 1.20 1.15 1.14 1.14 1.15 1.17 1.18 1.21 1.26 1.31 1.34 1.36 1.36 1.34 1.31 1.29 1.28 1.30 1.30 1.34 1.38 1.39 1.41 1.46 1.42 1.36 1.40 1.47 1.48 1.48 1.48 1.43 1.46 1.46
1.53 1.50 1.50 1.51 1.58 1.67 1.71 1.73 1.78 1.78 1.75 1.73 1.69 1.66 1.64 1.59 1.51 1.43 1.39 1.33 1.27 1.23 1.23 1.20 1.14 1.10 1.11 1.15 1.21 1.28 1.35 1.40 1.35 1.30 1.29 1.28 1.26 1.24 1.23 1.26 1.31 1.30 1.30 1.29 1.34 1.35 1.34 1.37 1.40 1.44 1.42 1.33 1.26 1.22 1.20 1.21 1.22 1.24 1.28 1.29 1.30 1.31 1.32 1.29 1.27 1.24 1.22 1.19 1.18 1.23 1.30 1.39 1.45 1.46 1.41 1.39 1.42 1.47 1.51 1.48 1.41 1.41 1.42 1.44 1.44
1.56 1.51 1.49 1.50 1.55 1.62 1.70 1.73 1.74 1.74 1.75 1.72 1.64 1.59 1.53 1.46 1.35 1.37 1.37 1.32 1.27 1.21 1.19 1.17 1.10 1.07 1.06 1.07 1.14 1.23 1.28 1.33 1.30 1.29 1.27 1.24 1.23 1.23 1.23 1.26 1.31 1.36 1.34 1.36 1.43 1.50 1.51 1.51 1.51 1.51 1.47 1.43 1.38 1.34 1.31 1.28 1.29 1.30 1.30 1.31 1.31 1.28 1.24 1.21 1.19 1.19 1.16 1.18 1.25 1.33 1.43 1.50 1.52 1.47 1.45 1.50 1.53 1.56 1.44 1.39 1.40 1.42 1.48 1.49 1.43
1.57 1.51 1.52 1.53 1.54 1.60 1.64 1.67 1.72 1.74 1.75 1.72 1.62 1.55 1.44 1.34 1.26 1.28 1.28 1.25 1.22 1.17 1.13 1.12 1.10 1.07 1.05 1.08 1.13 1.18 1.24 1.26 1.26 1.25 1.26 1.26 1.28 1.30 1.33 1.38 1.43 1.50 1.53 1.54 1.54 1.55 1.56 1.56 1.55 1.52 1.50 1.48 1.45 1.41 1.37 1.36 1.36 1.37 1.38 1.38 1.35 1.30 1.27 1.24 1.22 1.21 1.24 1.35 1.44 1.45 1.54 1.58 1.48 1.42 1.48 1.51 1.42 1.36 1.36 1.33 1.30 1.41 1.43 1.37 1.28
1.56 1.53 1.52 1.53 1.57 1.59 1.57 1.58 1.64 1.66 1.68 1.68 1.64 1.57 1.53 1.44 1.35 1.33 1.31 1.28 1.27 1.27 1.26 1.23 1.21 1.18 1.14 1.15 1.18 1.24 1.28 1.31 1.33 1.33 1.36 1.38 1.41 1.48 1.52 1.55 1.60 1.63 1.63 1.64 1.63 1.63 1.63 1.65 1.66 1.66 1.64 1.62 1.60 1.59 1.55 1.51 1.46 1.43 1.43 1.45 1.45 1.43 1.40 1.40 1.41 1.42 1.46 1.53 1.62 1.69 1.51 1.41 1.41 1.41 1.40 1.39 1.38 1.45 1.47 1.43 1.34 1.38 1.35 1.32 1.24
1.52 1.49 1.51 1.54 1.56 1.56 1.53 1.56 1.59 1.58 1.61 1.60 1.53 1.51 1.51 1.46 1.35 1.29 1.28 1.30 1.30 1.29 1.31 1.30 1.28 1.28 1.26 1.26 1.28 1.31 1.34 1.41 1.47 1.46 1.48 1.50 1.53 1.58 1.59 1.61 1.63 1.65 1.67 1.71 1.74 1.76 1.75 1.75 1.76 1.78 1.77 1.74 1.73 1.72 1.69 1.67 1.64 1.61 1.60 1.61 1.61 1.63 1.63 1.65 1.71 1.73 1.72 1.67 1.55 1.47 1.44 1.42 1.37 1.43 1.48 1.48 1.54 1.56 1.58 1.48 1.33 1.32 1.32 1.27 1.19
1.51 1.52 1.55 1.55 1.54 1.56 1.57 1.58 1.59 1.56 1.56 1.58 1.56 1.53 1.48 1.43 1.37 1.38 1.45 1.50 1.43 1.35 1.33 1.35 1.38 1.42 1.41 1.35 1.31 1.29 1.32 1.36 1.44 1.60 1.59 1.64 1.64 1.63 1.63 1.67 1.74 1.79 1.83 1.87 1.87 1.87 1.83 1.76 1.72 1.73 1.73 1.71 1.71 1.71 1.72 1.72 1.74 1.76 1.76 1.77 1.77 1.78 1.74 1.73 1.69 1.68 1.65 1.58 1.50 1.46 1.46 1.50 1.51 1.55 1.48 1.50 1.52 1.56 1.57 1.40 1.36 1.33 1.32 1.27 1.13
1.51 1.48 1.52 1.52 1.52 1.55 1.55 1.54 1.56 1.56 1.55 1.49 1.40 1.41 1.50 1.48 1.45 1.46 1.45 1.50 1.52 1.56 1.51 1.45 1.48 1.48 1.47 1.49 1.49 1.40 1.40 1.49 1.63 1.69 1.73 1.77 1.81 1.83 1.84 1.90 1.93 1.95 1.98 1.99 1.96 1.85 1.79 1.72 1.71 1.70 1.71 1.71 1.70 1.70 1.72 1.75 1.76 1.78 1.83 1.88 1.91 1.92 1.85 1.81 1.76 1.67 1.66 1.67 1.66 1.62 1.58 1.56 1.53 1.52 1.55 1.59 1.59 1.59 1.55 1.45 1.41 1.36 1.26 1.16 1.06
1.48 1.45 1.47 1.48 1.51 1.53 1.54 1.53 1.56 1.54 1.52 1.46 1.39 1.33 1.36 1.48 1.54 1.56 1.55 1.55 1.56 1.57 1.58 1.58 1.60 1.61 1.58 1.55 1.63 1.69 1.73 1.78 1.79 1.85 1.90 1.92 1.93 1.95 1.98 2.00 2.01 2.02 2.05 2.00 1.91 1.82 1.76 1.72 1.73 1.76 1.77 1.78 1.76 1.76 1.80 1.80 1.80 1.80 1.81 1.84 1.84 1.86 1.76 1.68 1.71 1.78 1.76 1.71 1.72 1.75 1.71 1.59 1.53 1.58 1.57 1.50 1.48 1.50 1.55 1.50 1.38 1.30 1.21 1.13 1.07
1.50 1.46 1.45 1.50 1.56 1.57 1.58 1.56 1.55 1.52 1.54 1.48 1.41 1.37 1.37 1.37 1.46 1.56 1.59 1.60 1.60 1.59 1.61 1.64 1.67 1.68 1.73 1.72 1.72 1.76 1.83 1.91 1.96 1.99 2.02 2.03 2.03 2.03 2.04 2.05 2.07 2.07 2.06 2.05 1.89 1.83 1.82 1.78 1.76 1.77 1.80 1.77 1.77 1.80 1.80 1.78 1.78 1.76 1.76 1.74 1.74 1.80 1.74 1.70 1.71 1.72 1.72 1.72 1.69 1.69 1.74 1.65 1.51 1.49 1.51 1.52 1.50 1.46 1.40 1.39 1.31 1.18 1.16 1.14 1.09
1.82 1.64 1.60 1.66 1.65 1.62 1.62 1.60 1.57 1.58 1.54 1.46 1.43 1.41 1.35 1.32 1.30 1.40 1.56 1.62 1.64 1.64 1.67 1.70 1.73 1.75 1.78 1.80 1.83 1.85 1.91 1.97 2.00 2.01 2.01 2.01 2.01 2.02 2.05 2.08 2.09 2.09 2.07 1.96 1.87 1.82 1.81 1.79 1.75 1.75 1.74 1.69 1.72 1.72 1.74 1.76 1.76 1.75 1.72 1.72 1.70 1.72 1.71 1.69 1.68 1.66 1.67 1.68 1.66 1.63 1.58 1.51 1.53 1.55 1.56 1.49 1.40 1.27 1.35 1.33 1.25 1.21 1.20 1.16 1.13
1.78 1.83 1.82 1.83 1.88 1.75 1.70 1.66 1.60 1.64 1.63 1.52 1.48 1.43 1.40 1.39 1.39 1.41 1.41 1.47 1.56 1.66 1.74 1.78 1.80 1.82 1.82 1.84 1.87 1.92 1.95 1.97 1.99 2.00 2.00 2.00 2.00 2.01 1.99 1.98 1.98 1.98 1.93 1.85 1.82 1.75 1.74 1.69 1.68 1.67 1.67 1.69 1.70 1.73 1.72 1.73 1.73 1.72 1.71 1.70 1.67 1.69 1.73 1.72 1.69 1.67 1.65 1.63 1.59 1.53 1.52 1.55 1.56 1.56 1.55 1.46 1.43 1.42 1.31 1.24 1.27 1.22 1.18 1.17 1.18
1.95 1.84 1.81 1.88 2.05 2.03 1.84 1.79 1.68 1.71 1.76 1.62 1.58 1.50 1.47 1.49 1.48 1.47 1.45 1.46 1.48 1.50 1.57 1.70 1.81 1.85 1.85 1.87 1.89 1.93 1.95 1.97 1.97 1.97 1.98 1.99 1.99 1.98 1.97 1.88 1.80 1.81 1.82 1.81 1.77 1.74 1.72 1.71 1.70 1.72 1.74 1.72 1.73 1.74 1.70 1.70 1.70 1.69 1.68 1.67 1.70 1.74 1.72 1.67 1.63 1.58 1.60 1.60 1.60 1.55 1.58 1.56 1.58 1.54 1.46 1.47 1.44 1.34 1.29 1.24 1.20 1.21 1.22 1.23 1.18
1.86 1.76 1.67 1.79 2.02 2.12 2.06 2.05 1.84 1.76 1.81 1.79 1.69 1.65 1.62 1.60 1.56 1.56 1.60 1.63 1.65 1.62 1.61 1.68 1.77 1.84 1.88 1.87 1.86 1.87 1.88 1.90 1.92 1.94 1.95 1.95 1.95 1.94 1.79 1.74 1.74 1.74 1.75 1.78 1.76 1.74 1.72 1.69 1.67 1.69 1.75 1.77 1.79 1.78 1.75 1.69 1.66 1.65 1.66 1.68 1.70 1.63 1.61 1.58 1.59 1.57 1.48 1.55 1.53 1.55 1.58 1.56 1.50 1.48 1.45 1.37 1.26 1.19 1.10 1.12 1.18 1.24 1.23 1.16 1.09
1.77 1.68 1.58 1.67 1.96 2.05 2.12 2.17 2.02 1.90 1.92 1.95 1.88 1.85 1.83 1.84 1.86 1.83 1.78 1.73 1.64 1.61 1.64 1.72 1.77 1.81 1.85 1.87 1.89 1.91 1.93 1.95 1.97 1.97 1.97 1.97 1.98 1.98 1.92 1.86 1.80 1.78 1.74 1.74 1.71 1.66 1.64 1.65 1.68 1.71 1.73 1.73 1.72 1.71 1.67 1.61 1.62 1.64 1.66 1.67 1.66 1.68 1.69 1.63 1.62 1.57 1.52 1.50 1.48 1.44 1.48 1.50 1.47 1.40 1.32 1.23 1.26 1.30 1.33 1.30 1.25 1.20 1.14 1.11 1.08
1.69 1.64 1.60 1.62 1.76 2.04 2.15 2.16 2.19 2.11 1.96 1.98 1.93 1.92 1.91 1.88 1.89 1.97 1.91 1.72 1.67 1.67 1.66 1.70 1.74 1.76 1.73 1.78 1.89 1.89 1.91 1.93 1.94 1.91 1.91 1.89 1.88 1.88 1.88 1.88 1.84 1.75 1.71 1.67 1.63 1.62 1.59 1.60 1.63 1.63 1.65 1.67 1.65 1.65 1.64 1.63 1.63 1.63 1.67 1.70 1.64 1.60 1.64 1.65 1.60 1.55 1.54 1.52 1.47 1.52 1.51 1.48 1.42 1.38 1.39 1.33 1.26 1.25 1.26 1.25 1.19 1.11 1.11 1.09 1.08
1.69 1.67 1.67 1.70 1.86 2.07 2.17 2.18 2.18 2.10 2.02 1.89 1.80 1.82 1.80 1.80 1.79 1.84 1.86 1.74 1.68 1.65 1.63 1.64 1.64 1.62 1.64 1.73 1.77 1.85 1.84 1.79 1.74 1.72 1.76 1.80 1.83 1.85 1.82 1.78 1.74 1.69 1.65 1.62 1.61 1.59 1.56 1.52 1.57 1.64 1.68 1.70 1.74 1.74 1.69 1.61 1.62 1.61 1.62 1.61 1.57 1.57 1.57 1.54 1.56 1.56 1.51 1.49 1.50 1.56 1.52 1.48 1.44 1.43 1.40 1.31 1.27 1.28 1.25 1.23 1.24 1.19 1.12 1.10 1.11
1.68 1.69 1.74 1.78 1.87 2.00 2.01 1.99 1.99 1.97 1.91 1.81 1.78 1.78 1.76 1.81 1.86 1.84 1.77 1.68 1.63 1.59 1.53 1.46 1.41 1.44 1.54 1.60 1.63 1.66 1.60 1.59 1.62 1.65 1.66 1.67 1.66 1.65 1.61 1.59 1.59 1.58 1.53 1.49 1.48 1.47 1.47 1.53 1.60 1.68 1.79 1.82 1.82 1.75 1.66 1.61 1.63 1.65 1.63 1.57 1.51 1.49 1.51 1.50 1.51 1.57 1.56 1.55 1.51 1.56 1.56 1.49 1.42 1.41 1.38 1.34 1.30 1.26 1.25 1.24 1.22 1.18 1.14 1.12 1.11
1.88 1.87 1.81 1.77 1.88 1.91 1.86 1.89 1.97 2.00 1.87 1.80 1.83 1.84 1.79 1.79 1.84 1.82 1.70 1.62 1.57 1.49 1.41 1.36 1.36 1.43 1.48 1.52 1.54 1.55 1.52 1.50 1.50 1.48 1.46 1.46 1.47 1.46 1.46 1.45 1.43 1.43 1.47 1.47 1.42 1.40 1.45 1.54 1.66 1.71 1.79 1.72 1.70 1.64 1.59 1.54 1.52 1.53 1.59 1.63 1.63 1.56 1.51 1.53 1.54 1.50 1.51 1.51 1.49 1.43 1.44 1.47 1.42 1.36 1.32 1.34 1.33 1.30 1.27 1.24 1.20 1.18 1.16 1.14 1.12
1.77 1.89 1.92 1.79 1.78 1.87 1.97 1.85 1.87 1.91 1.85 1.82 1.81 1.80 1.81 1.81 1.79 1.72 1.65 1.59 1.51 1.44 1.39 1.40 1.42 1.47 1.50 1.51 1.52 1.52 1.44 1.41 1.41 1.40 1.41 1.43 1.42 1.41 1.41 1.41 1.43 1.44 1.44 1.40 1.36 1.39 1.51 1.58 1.63 1.64 1.60 1.54 1.46 1.44 1.46 1.50 1.53 1.58 1.56 1.56 1.55 1.51 1.47 1.51 1.50 1.50 1.49 1.45 1.46 1.42 1.42 1.37 1.34 1.36 1.36 1.34 1.32 1.29 1.25 1.21 1.16 1.13 1.12 1.11 1.11
1.60 1.71 1.78 1.87 1.76 1.68 1.72 1.80 1.87 1.88 1.81 1.78 1.75 1.75 1.76 1.76 1.73 1.69 1.61 1.50 1.44 1.40 1.38 1.42 1.45 1.47 1.46 1.46 1.44 1.42 1.40 1.38 1.36 1.35 1.34 1.32 1.31 1.32 1.34 1.37 1.37 1.38 1.45 1.53 1.55 1.55 1.51 1.47 1.44 1.41 1.38 1.36 1.43 1.52 1.53 1.57 1.53 1.47 1.45 1.42 1.40 1.42 1.42 1.40 1.39 1.41 1.44 1.41 1.33 1.26 1.25 1.27 1.28 1.28 1.27 1.27 1.25 1.21 1.17 1.13 1.11 1.10 1.08 1.08 1.06
1.53 1.52 1.57 1.71 1.75 1.67 1.70 1.79 1.80 1.82 1.78 1.76 1.74 1.74 1.73 1.70 1.64 1.56 1.49 1.43 1.41 1.39 1.37 1.34 1.36 1.37 1.38 1.39 1.39 1.36 1.34 1.35 1.34 1.32 1.30 1.28 1.28 1.29 1.33 1.39 1.41 1.45 1.48 1.49 1.47 1.45 1.42 1.41 1.39 1.38 1.40 1.43 1.46 1.45 1.43 1.41 1.41 1.39 1.34 1.33 1.34 1.35 1.36 1.35 1.35 1.34 1.34 1.33 1.32 1.29 1.27 1.27 1.27 1.26 1.24 1.21 1.18 1.13 1.07 1.05 1.05 1.04 1.04 1.04 1.05
1.46 1.51 1.50 1.47 1.55 1.55 1.51 1.55 1.62 1.68 1.71 1.70 1.71 1.69 1.65 1.62 1.61 1.59 1.55 1.50 1.45 1.36 1.30 1.30 1.34 1.33 1.34 1.35 1.35 1.33 1.31 1.30 1.30 1.32 1.33 1.33 1.33 1.34 1.34 1.42 1.49 1.48 1.49 1.49 1.48 1.45 1.41 1.38 1.37 1.37 1.37 1.38 1.39 1.40 1.39 1.38 1.37 1.35 1.34 1.34 1.30 1.29 1.30 1.32 1.34 1.35 1.35 1.33 1.29 1.28 1.27 1.27 1.25 1.24 1.21 1.19 1.17 1.13 1.07 1.05 1.04 1.04 1.05 1.06 1.07
1.30 1.37 1.43 1.41 1.42 1.46 1.45 1.52 1.56 1.55 1.51 1.53 1.55 1.57 1.60 1.58 1.53 1.47 1.44 1.43 1.41 1.39 1.37 1.39 1.43 1.44 1.42 1.37 1.35 1.33 1.31 1.30 1.30 1.34 1.37 1.38 1.36 1.38 1.45 1.44 1.49 1.57 1.60 1.57 1.51 1.45 1.41 1.40 1.39 1.38 1.38 1.39 1.39 1.36 1.34 1.33 1.34 1.35 1.36 1.35 1.33 1.32 1.33 1.33 1.33 1.30 1.29 1.30 1.30 1.28 1.25 1.22 1.19 1.17 1.17 1.15 1.13 1.09 1.05 1.05 1.06 1.07 1.06 1.05 1.06
1.27 1.26 1.26 1.33 1.39 1.37 1.37 1.42 1.51 1.52 1.49 1.47 1.41 1.38 1.41 1.45 1.45 1.42 1.39 1.35 1.32 1.32 1.34 1.38 1.43 1.41 1.37 1.33 1.33 1.33 1.32 1.30 1.28 1.30 1.34 1.40 1.43 1.43 1.42 1.41 1.37 1.34 1.36 1.38 1.39 1.39 1.38 1.37 1.36 1.34 1.32 1.29 1.27 1.26 1.27 1.28 1.29 1.30 1.30 1.31 1.31 1.31 1.30 1.29 1.29 1.28 1.30 1.32 1.31 1.28 1.24 1.21 1.20 1.19 1.16 1.15 1.13 1.12 1.11 1.09 1.07 1.06 1.06 1.05 1.03
1.21 1.23 1.22 1.22 1.23 1.26 1.28 1.28 1.30 1.37 1.40 1.39 1.36 1.34 1.33 1.33 1.31 1.31 1.30 1.30 1.29 1.28 1.26 1.26 1.26 1.27 1.30 1.31 1.32 1.32 1.33 1.32 1.30 1.27 1.27 1.28 1.31 1.34 1.34 1.34 1.33 1.31 1.31 1.32 1.34 1.36 1.38 1.37 1.33 1.28 1.24 1.21 1.20 1.20 1.21 1.23 1.25 1.26 1.27 1.28 1.30 1.30 1.30 1.29 1.28 1.28 1.27 1.25 1.24 1.24 1.22 1.20 1.17 1.15 1.14 1.11 1.09 1.08 1.07 1.06 1.07 1.07 1.06 1.05 1.05
1.15 1.16 1.17 1.18 1.19 1.19 1.17 1.19 1.17 1.17 1.22 1.30 1.32 1.31 1.30 1.27 1.26 1.24 1.24 1.25 1.26 1.27 1.28 1.27 1.24 1.26 1.30 1.33 1.33 1.30 1.29 1.27 1.29 1.33 1.38 1.39 1.38 1.34 1.28 1.25 1.26 1.29 1.32 1.34 1.36 1.37 1.35 1.32 1.27 1.21 1.18 1.18 1.20 1.22 1.22 1.22 1.21 1.23 1.24 1.25 1.27 1.27 1.26 1.26 1.25 1.22 1.21 1.21 1.20 1.20 1.18 1.17 1.15 1.12 1.08 1.05 1.05 1.07 1.08 1.08 1.07 1.05 1.04 1.04 1.04
1.06 1.08 1.09 1.11 1.11 1.12 1.14 1.15 1.14 1.16 1.21 1.22 1.24 1.21 1.23 1.24 1.23 1.20 1.20 1.22 1.21 1.23 1.24 1.23 1.23 1.25 1.28 1.28 1.28 1.26 1.24 1.23 1.26 1.31 1.34 1.35 1.35 1.31 1.24 1.20 1.21 1.25 1.28 1.30 1.31 1.31 1.29 1.26 1.24 1.22 1.22 1.22 1.23 1.24 1.24 1.24 1.23 1.20 1.17 1.15 1.15 1.17 1.17 1.18 1.19 1.18 1.17 1.18 1.19 1.19 1.19 1.15 1.13 1.11 1.09 1.07 1.05 1.04 1.02 1.02 1.02 1.04 1.05 1.04 1.03
1.02 1.02 1.03 1.04 1.05 1.07 1.08 1.09 1.11 1.13 1.12 1.16 1.17 1.17 1.19 1.18 1.17 1.18 1.18 1.18 1.17 1.17 1.17 1.19 1.19 1.21 1.22 1.24 1.23 1.22 1.21 1.20 1.21 1.25 1.27 1.27 1.25 1.21 1.20 1.21 1.21 1.20 1.20 1.21 1.22 1.22 1.23 1.22 1.21 1.22 1.24 1.24 1.23 1.22 1.21 1.19 1.16 1.13 1.10 1.07 1.07 1.09 1.12 1.14 1.15 1.16 1.17 1.18 1.19 1.14 1.11 1.08 1.07 1.03 1.01 0.98 0.95 0.94 0.94 0.95 0.97 0.99 1.01 1.00 0.99
Wind_Speed
27 27 27 26 26 26 25 25 24 24 24 23 23 23 22 22 21 21 20 20 19 18 18 17 16 15 14 14 13 13 12 11 10 10 9 9 8 8 8 7 7 6 6 5 5 4 4 4 4 4 4 4 4 4 5 5 5 4 3 3 3 3 3 3 3 4 4 5 6 7 8 9 10 11 11 11 11 12 12 13 14 15 16 17 17
26 26 27 27 27 26 26 25 25 24 24 24 23 23 23 22 22 21 21 20 20 20 19 19 18 17 16 15 14 14 13 12 12 11 11 10 10 9 9 9 8 8 7 7 7 6 6 6 5 5 4 5 5 6 6 6 6 6 5 5 5 5 5 5 5 5 6 6 7 8 9 10 11 11 11 11 11 12 13 14 15 15 16 16 16
25 25 26 27 27 27 27 26 25 25 24 24 24 23 23 22 22 22 22 21 21 21 20 20 19 18 17 16 16 15 14 13 13 12 12 11 11 11 10 10 10 9 9 9 8 8 7 7 7 6 6 6 6 7 7 7 7 7 7 6 6 6 6 6 6 7 8 8 8 9 10 11 11 11 12 12 13 14 14 14 14 14 14 15 15
23 24 25 26 27 27 27 27 27 26 25 24 24 24 23 23 22 22 22 22 21 21 21 21 20 20 19 18 17 16 15 15 14 13 13 12 12 12 11 11 11 11 11 10 10 10 9 9 8 8 7 7 7 7 8 8 8 8 8 8 8 7 7 7 7 8 8 9 10 10 11 12 12 12 13 13 13 13 13 13 13 13 13 14 16
22 23 24 25 26 27 27 27 27 27 26 25 25 24 23 23 22 22 22 22 22 22 22 21 21 21 20 19 18 18 17 16 15 14 14 13 13 13 12 12 12 12 12 12 12 11 11 10 10 10 9 9 8 8 9 9 9 9 9 9 9 8 8 8 9 9 9 10 11 11 11 12 13 13 13 13 12 12 12 12 12 13 13 15 16
21 22 23 24 25 26 27 27 28 28 27 27 26 25 24 23 23 23 23 23 22 22 22 22 22 22 21 20 20 19 18 17 16 16 15 14 14 14 13 13 13 13 13 13 13 13 12 12 12 11 11 11 10 10 10 10 10 10 10 10 10 9 9 9 9 10 10 11 11 12 12 12 12 12 11 11 11 11 12 12 13 14 14 16 17
22 22 22 23 23 25 26 27 27 28 28 27 27 26 25 24 23 23 23 23 23 22 23 22 22 22 22 21 21 20 19 18 18 17 16 15 15 14 14 14 14 14 13 13 14 14 14 13 13 13 13 13 12 11 11 11 12 12 12 11 11 11 11 11 10 10 11 11 11 11 11 11 11 11 11 11 11 11 12 13 13 14 15 16 17
23 22 22 22 22 23 25 25 26 27 27 27 27 27 26 25 24 24 24 24 24 23 23 23 23 22 23 22 22 21 20 20 19 18 17 16 16 15 15 15 14 14 14 14 14 15 15 15 14 14 14 14 14 13 13 12 13 13 13 13 13 13 12 12 12 11 11 11 11 11 11 11 11 11 12 12 11 12 12 12 13 15 16 17 19
24 23 23 22 22 23 23 24 25 25 26 27 27 27 27 26 26 25 25 24 24 24 23 23 23 23 23 23 22 22 21 21 20 19 19 18 17 16 16 15 15 15 14 14 14 15 15 15 15 15 15 15 15 15 15 14 14 14 14 14 14 14 14 13 13 12 12 12 12 12 11 11 11 12 12 11 11 12 12 12 14 16 17 19 20
24 24 24 23 22 23 23 23 23 24 25 26 27 26 27 27 27 26 26 25 25 24 24 23 23 23 23 23 23 22 22 22 21 21 20 19 18 17 17 16 16 15 15 15 15 15 15 16 16 16 16 16 16 16 16 16 15 15 15 15 15 15 15 14 14 14 13 13 13 12 12 12 12 12 12 12 12 13 13 14 16 17 19 20 21
26 24 24 24 23 23 23 23 23 23 24 25 26 26 26 27 27 26 26 26 26 25 25 24 24 23 23 23 23 23 23 22 22 22 21 20 19 18 18 17 17 16 16 15 15 15 15 16 16 16 16 16 16 16 17 17 16 16 16 16 16 16 16 15 15 14 14 14 13 13 13 13 13 12 12 13 13 14 14 16 17 19 20 20 21
27 26 25 24 24 24 24 24 23 23 23 24 25 26 26 26 27 27 27 27 27 26 26 25 25 24 23 24 24 23 23 23 23 23 22 21 20 20 19 18 18 17 17 16 16 16 16 16 16 16 16 16 16 16 17 17 17 17 17 16 17 17 17 17 16 16 15 15 15 15 14 14 14 14 14 14 14 16 17 17 18 19 20 21 22
27 27 26 25 25 24 24 24 24 23 23 23 24 25 25 26 26 27 27 27 27 27 27 26 26 25 24 24 24 24 24 24 24 23 23 22 21 20 20 19 19 18 18 17 17 16 16 16 16 16 16 16 16 16 17 17 18 18 17 17 17 17 17 18 18 18 17 17 17 17 16 16 16 16 16 16 17 18 18 18 18 19 21 22 23
28 27 27 26 25 25 25 25 24 24 23 23 23 24 25 25 25 26 26 27 27 27 27 27 27 26 25 24 24 24 24 24 24 24 23 23 22 21 20 20 19 19 18 18 17 17 16 16 16 17 17 17 17 17 17 17 18 18 18 17 17 17 18 18 18 19 19 19 19 19 18 18 17 18 18 18 18 18 18 18 19 21 22 23 23
28 28 28 27 26 26 25 25 25 24 24 24 23 23 24 24 25 25 26 26 27 27 27 27 27 27 26 25 24 24 24 24 24 24 24 24 23 22 21 21 20 19 19 18 18 18 17 17 17 17 17 18 18 18 18 18 19 19 19 18 19 18 18 18 18 19 19 19 19 20 19 18 18 18 18 18 18 18 19 19 21 22 22 23 24
28 29 28 28 28 27 26 26 25 25 24 24 24 24 24 24 24 25 25 26 26 27 27 27 27 27 27 26 25 25 24 24 25 25 25 24 23 22 22 22 21 20 19 19 19 18 18 18 18 18 18 18 19 19 19 19 19 19 19 19 19 19 19 19 19 19 19 19 19 19 19 19 19 19 19 18 18 19 20 21 22 22 22 23 24
29 29 29 29 29 28 27 26 26 26 25 24 24 24 24 24 24 24 25 25 25 26 27 27 27 28 28 28 27 26 25 25 25 25 25 25 23 22 22 23 23 22 21 20 19 19 19 19 19 19 19 19 19 20 20 20 20 20 20 20 20 20 20 20 20 20 20 20 20 20 20 19 19 20 20 20 20 20 20 21 22 21 22 23 23
28 29 30 30 29 29 28 27 26 26 26 25 25 25 25 24 24 24 24 25 25 26 27 27 27 27 28 28 28 27 26 25 26 26 26 25 24 23 23 23 23 23 23 22 22 21 20 21 21 20 20 20 20 20 20 21 21 21 21 21 21 21 21 21 21 21 21 20 20 20 20 20 21 21 21 22 21 21 21 22 21 21 22 23 23
28 28 29 29 29 29 28 27 27 27 26 26 25 25 25 25 25 24 24 25 24 25 25 26 27 27 27 28 28 28 27 27 27 27 27 26 26 25 24 24 23 23 23 24 24 23 23 23 22 22 22 21 21 21 21 22 22 22 22 22 22 22 22 22 21 21 20 20 20 20 20 21 21 21 22 22 22 22 21 21 21 21 22 23 24
28 28 28 28 29 29 29 28 27 27 26 26 25 25 25 25 26 25 25 25 25 24 25 25 26 26 27 27 28 28 28 27 28 28 28 27 27 26 25 24 24 24 24 24 24 24 24 24 24 24 24 23 23 23 23 23 23 23 23 23 23 23 22 21 21 20 20 20 19 20 20 21 21 21 22 22 22 22 21 21 21 22 23 24 25
28 27 27 28 29 29 30 29 29 28 27 26 25 25 25 26 26 26 26 26 25 25 25 25 25 25 26 26 27 27 28 28 28 28 28 28 28 27 26 25 25 24 24 24 24 24 24 24 24 24 24 24 24 24 24 24 24 24 24 24 24 23 22 22 21 21 21 20 20 21 21 21 22 22 23 22 22 22 21 22 23 23 24 25 25
29 28 28 28 29 29 30 30 29 28 27 26 26 25 25 26 26 26 27 26 26 26 25 25 25 25 25 26 26 26 27 27 27 27 28 28 28 28 27 26 25 24 24 24 24 24 24 24 24 24 24 24 24 24 25 25 25 25 25 24 24 23 23 23 23 22 22 22 22 22 22 22 23 23 24 23 22 22 22 22 23 24 25 25 25
30 30 29 29 29 29 29 29 30 29 28 27 26 25 25 26 26 26 27 27 26 26 26 25 25 25 24 25 25 25 26 26 26 26 26 27 27 28 27 26 25 24 24 24 24 24 24 24 23 23 23 23 24 24 24 25 25 25 25 25 24 24 24 24 24 24 24 24 24 24 24 24 24 25 24 24 23 23 23 24 24 25 25 25 25
32 31 30 30 29 29 29 29 30 29 29 28 27 26 26 26 26 27 27 27 26 26 26 26 26 26 25 25 25 25 25 25 25 25 26 26 26 27 27 26 25 25 24 24 23 23 23 23 23 22 22 22 23 23 23 24 24 24 25 25 25 25 25 25 26 26 26 26 26 26 25 25 25 25 24 24 24 24 25 25 25 25 25 24 24
34 32 31 31 30 30 29 29 30 29 29 28 27 26 26 25 26 26 27 27 26 26 26 26 26 26 26 25 24 25 24 24 24 25 25 26 26 26 26 26 25 25 24 24 23 22 21 21 21 22 21 21 22 22 22 22 23 23 23 24 24 25 25 25 26 25 25 26 26 26 26 26 25 24 24 25 25 25 25 25 25 25 24 24 24
35 34 33 32 32 31 31 30 30 30 29 28 28 26 25 25 25 25 26 26 26 25 25 25 25 25 25 25 24 24 23 23 23 23 24 24 24 25 25 25 25 25 24 23 22 22 22 21 20 20 20 20 20 20 20 21 21 22 22 22 23 24 24 24 25 25 25 25 25 25 25 24 23 24 25 25 25 25 24 24 24 24 23 23 24
37 36 34 33 33 33 32 31 31 30 29 29 28 26 25 25 25 25 25 25 25 24 24 24 24 24 24 24 23 23 23 23 23 23 23 23 24 24 24 24 24 25 24 23 23 23 22 22 21 20 20 19 20 20 20 20 21 21 22 22 23 23 23 24 24 24 24 24 24 24 23 23 24 25 25 25 25 24 24 24 24 23 23 24 25
38 37 36 35 34 34 33 32 32 31 30 29 28 26 26 25 25 25 25 25 25 24 24 24 23 23 23 23 24 23 23 23 23 24 24 24 24 24 24 24 24 24 25 25 24 23 23 22 22 21 21 21 21 21 21 21 22 22 22 23 23 24 24 23 23 24 24 24 24 24 24 25 25 25 25 24 24 24 24 24 23 23 23 24 25
38 38 37 37 36 35 34 34 33 32 31 30 28 26 25 25 25 25 25 25 24 24 24 24 24 24 23 24 24 24 24 24 24 24 25 25 25 25 25 25 24 24 25 25 25 24 23 23 23 23 23 23 23 23 23 23 23 23 24 24 24 24 24 24 24 25 25 25 26 27 27 26 26 25 24 24 23 24 24 24 23 23 24 25 25
38 39 39 39 38 37 35 35 34 33 32 30 28 26 25 24 24 23 24 24 24 24 24 24 25 25 24 23 23 23 24 24 24 24 24 25 25 25 25 25 25 25 25 25 25 24 24 24 25 25 25 25 25 25 25 25 25 25 25 25 25 25 25 25 25 26 27 27 28 28 27 26 25 25 24 24 24 24 24 23 23 24 24 24 24
38 40 40 40 40 39 37 36 36 34 33 31 29 27 26 24 23 22 22 23 23 23 23 24 24 25 24 24 23 22 22 22 22 23 23 24 24 25 25 25 25 25 25 25 25 25 25 25 26 26 26 26 26 26 26 25 25 24 24 25 25 25 25 25 25 26 27 27 27 27 26 25 25 25 25 24 24 24 24 23 23 23 23 23 23
38 40 41 41 41 40 39 38 38 36 34 32 31 30 28 26 24 22 22 22 22 23 23 23 23 23 24 23 23 23 22 22 22 22 23 23 24 24 24 24 25 25 25 25 25 26 26 26 26 26 26 26 25 25 25 25 24 24 25 25 24 24 24 25 25 25 26 27 27 26 26 25 25 25 25 24 23 23 23 23 23 23 23 23 23
37 39 40 41 42 43 42 40 39 37 35 33 33 32 30 28 25 24 23 22 22 22 22 22 22 22 23 23 23 23 23 23 22 22 22 23 23 23 23 23 23 23 23 24 24 25 25 26 26 26 25 25 25 25 25 25 25 25 25 25 24 24 24 25 26 26 27 27 27 26 25 25 25 25 23 22 22 22 22 22 22 23 23 23 23
35 37 38 38 40 43 43 42 40 39 36 35 34 33 32 29 27 26 25 24 23 22 22 21 21 22 22 22 22 23 23 23 22 22 22 22 22 22 22 22 23 23 24 24 25 25 25 26 26 26 25 25 25 25 25 25 25 25 25 25 24 25 26 27 27 27 27 26 25 24 23 24 24 23 22 21 21 21 21 21 22 23 23 23 23
33 35 37 38 38 40 42 42 41 40 37 35 35 34 32 30 29 28 27 26 24 23 23 22 22 22 22 22 22 22 22 22 22 22 22 22 22 23 23 23 24 25 26 26 26 26 26 26 27 27 27 27 27 27 27 27 26 26 26 26 26 26 27 27 27 26 25 24 23 22 22 22 21 20 20 20 20 21 21 22 23 23 23 23 24
30 32 35 37 38 39 40 41 42 40 37 35 34 33 32 31 30 30 29 27 25 24 23 23 23 23 23 22 22 22 22 22 22 22 23 23 24 24 25 25 26 26 27 27 27 27 27 27 28 28 28 28 28 28 28 28 27 27 27 26 26 26 26 25 25 24 23 22 22 21 21 21 20 20 20 21 22 22 23 23 23 23 24 24 25
27 29 32 35 37 38 39 39 39 39 36 34 32 31 31 30 29 29 27 26 25 24 24 24 24 24 23 23 23 23 23 23 23 24 24 25 25 26 26 27 27 27 28 28 28 28 28 29 29 29 29 29 28 28 27 27 27 26 26 26 25 24 24 23 23 23 22 22 22 22 21 21 21 21 22 22 23 23 23 23 23 24 25 26 27
24 25 28 31 34 35 36 36 36 35 34 32 30 29 29 28 27 26 24 23 23 23 23 24 24 23 24 24 24 25 25 25 25 25 25 26 27 27 27 27 27 27 27 27 27 27 28 28 28 28 28 27 27 27 27 26 26 25 25 25 24 23 22 22 22 22 22 22 22 21 21 21 22 23 23 23 24 24 24 24 25 26 26 27 28
23 23 24 27 30 32 33 32 32 31 30 29 28 28 27 27 25 24 23 22 22 22 23 23 23 23 23 24 25 25 25 25 25 25 25 26 26 26 26 25 25 25 25 25 26 26 26 27 27 26 26 25 25 25 25 25 24 24 24 23 23 23 22 22 22 22 22 22 22 22 22 23 24 24 24 24 24 25 25 26 27 27 28 28 29
22 22 22 23 27 29 29 29 29 27 26 25 26 26 25 25 24 23 22 22 22 22 22 22 23 23 24 24 25 25 25 24 24 24 24 24 24 24 23 23 23 23 23 23 24 24 24 24 25 24 24 24 24 23 23 23 23 23 23 22 22 23 23 23 23 23 23 23 23 23 23 24 24 24 24 25 25 26 26 27 28 29 30 30 31
19 19 19 21 22 23 23 25 26 24 23 23 24 24 23 23 23 22 22 22 22 22 22 22 22 23 23 23 24 24 23 23 22 22 22 22 22 21 21 21 21 21 21 22 22 22 22 22 22 22 22 23 22 22 22 23 22 23 23 23 23 23 24 24 23 24 24 23 23 24 24 25 25 24 25 26 27 27 28 29 30 31 32 32 32
17 16 17 19 20 20 20 21 22 21 21 22 22 22 22 22 21 21 21 22 22 22 21 21 21 22 22 21 21 22 21 21 21 21 20 20 20 20 20 20 20 21 21 21 21 21 21 21 21 22 22 22 22 22 22 22 23 23 24 24 24 24 24 23 23 23 23 23 23 24 25 25 25 25 26 27 28 29 29 30 31 32 32 33 33
19 17 17 17 18 19 19 19 19 19 19 20 21 21 21 22 22 21 21 22 22 21 21 21 21 21 21 20 20 20 20 20 20 20 20 20 20 20 20 20 20 20 20 20 20 20 21 21 21 22 21 21 22 22 22 22 23 23 24 24 24 23 23 23 23 23 23 23 24 25 25 26 26 26 27 27 28 30 30 31 32 33 33 34 34
21 20 20 19 19 19 18 18 18 18 18 18 20 21 21 21 22 22 22 22 22 22 21 21 21 21 21 20 20 20 20 20 20 20 20 20 20 20 20 20 20 20 20 20 20 20 20 20 21 21 21 21 21 22 22 22 23 24 24 24 24 24 24 24 24 24 25 25 25 26 27 27 27 28 29 30 30 31 32 33 34 35 35 35 35
22 22 21 21 21 20 19 19 20 20 19 19 20 21 21 22 22 22 23 23 22 22 21 21 20 20 20 20 19 19 19 19 19 20 20 20 20 20 19 19 19 19 20 20 20 20 20 20 21 21 21 22 22 22 22 22 23 23 24 25 25 25 25 25 26 26 27 27 27 27 28 28 29 30 31 31 32 33 34 35 35 35 35 35 35
23 23 23 22 21 20 20 20 21 22 22 20 20 21 22 23 22 22 23 23 22 22 21 20 20 20 20 20 19 19 19 19 19 19 19 19 19 19 19 19 19 19 20 20 20 20 21 21 21 21 22 22 22 23 23 23 24 24 25 25 26 26 26 27 27 27 28 28 28 29 29 30 31 32 33 33 34 34 35 34 34 34 34 35 35
22 22 23 22 22 21 21 21 21 22 22 22 21 21 21 22 22 22 22 22 22 22 22 21 21 21 21 21 20 20 20 19 19 19 19 19 19 19 20 20 20 20 20 20 20 20 20 21 21 21 21 22 22 23 23 24 25 25 25 26 26 27 27 28 28 29 29 30 31 31 32 32 33 33 34 34 34 34 34 33 33 34 34 35 35
21 21 21 21 21 21 21 22 22 22 23 23 23 22 21 22 22 22 22 22 22 22 22 23 22 22 22 21 21 21 20 20 20 20 20 20 20 20 20 20 20 20 20 20 20 20 20 20 20 21 21 22 22 23 23 24 25 25 26 26 27 27 28 28 29 30 31 32 33 33 33 33 33 33 34 34 34 34 33 33 34 35 36 36 36
21 21 21 21 21 21 21 21 22 23 24 24 23 22 22 22 22 22 22 22 22 22 23 23 23 23 22 22 22 22 22 21 21 21 21 21 21 20 20 20 20 20 20 21 21 21 21 21 21 22 22 23 23 24 24 24 25 25 26 26 27 28 29 30 31 32 32 33 34 34 33 33 33 33 34 34 35 35 35 35 36 37 37 37 37
23 22 22 22 21 21 21 21 22 23 24 24 23 22 21 21 21 22 22 22 22 22 23 23 24 24 24 24 23 23 23 23 22 22 22 22 21 21 21 21 21 22 22 23 23 23 23 23 23 23 24 24 24 24 25 25 25 26 27 28 28 29 30 30 31 32 33 33 34 33 33 33 33 33 34 35 35 36 36 37 37 38 38 38 38
24 23 23 23 23 23 22 22 22 23 24 24 23 22 21 21 21 21 22 22 23 23 23 24 24 25 25 25 25 24 24 24 23 23 23 23 23 23 22 23 23 23 24 24 25 25 24 25 25 25 25 25 25 25 26 26 27 28 28 29 29 30 31 31 32 33 33 33 33 33 32 32 33 33 34 34 35 36 37 37 38 38 38 38 39
Wind_Direction
213 213 213 215 215 215 215 215 215 217 217 218 219 220 220 220 220 221 221 222 222 220 219 218 219 220 219 219 220 221 222 223 224 226 227 228 228 228 227 226 226 227 229 234 237 240 243 243 239 237 233 232 232 224 216 214 217 221 223 222 224 230 235 245 264 286 299 307 314 318 319 320 321 323 325 325 324 323 322 322 322 322 324 326 329
214 214 214 215 215 215 216 216 216 217 218 219 220 221 221 221 221 221 221 222 222 221 220 220 220 221 221 222 223 224 225 228 229 229 230 231 232 233 232 232 233 232 232 236 239 241 244 245 243 242 240 238 237 234 230 226 224 227 230 232 237 242 246 253 264 280 295 304 309 312 314 317 320 324 324 323 323 325 325 325 325 325 326 328 331
214 215 215 215 215 216 216 217 217 217 218 220 220 221 222 222 222 221 221 221 222 223 222 221 221 222 223 224 224 226 228 230 233 234 233 233 234 236 236 235 236 237 236 237 240 242 244 246 246 245 243 241 240 239 238 234 232 233 234 236 241 245 250 256 262 273 287 298 304 307 311 315 318 321 321 320 322 324 324 325 329 330 331 332 334
212 214 215 215 215 215 216 217 218 218 219 220 221 221 222 222 222 221 221 221 222 223 223 223 223 223 224 225 226 227 229 231 234 236 236 236 236 237 238 238 238 239 241 241 243 245 245 246 248 247 246 245 244 243 242 241 238 237 239 240 243 249 254 260 265 272 282 292 299 303 307 312 315 318 320 320 321 323 325 330 334 335 335 336 337
211 213 215 215 216 216 216 218 219 219 220 221 221 221 221 222 223 222 221 221 221 222 223 224 224 224 224 226 227 229 230 231 233 236 238 239 239 239 239 240 240 241 242 243 245 247 248 249 249 248 248 248 247 246 246 245 243 242 243 246 249 254 260 266 272 277 283 290 297 301 305 309 313 317 320 319 318 321 326 330 333 335 335 335 336
211 212 214 215 216 216 217 218 219 220 221 221 221 222 221 222 223 223 223 222 221 222 223 224 225 225 226 226 227 229 230 232 234 236 238 239 240 241 241 242 243 244 244 244 246 248 249 250 249 249 250 250 249 248 248 248 247 246 247 249 252 257 262 268 274 279 284 289 294 298 302 307 311 315 319 319 316 320 326 329 331 332 332 333 334
212 212 214 215 216 216 217 218 219 220 221 221 221 221 222 222 223 224 224 223 222 222 223 224 225 226 227 228 228 229 230 232 234 236 238 239 240 242 243 244 245 246 247 247 247 248 249 250 250 250 251 251 251 250 249 249 250 250 251 252 255 259 263 269 272 277 282 286 290 293 297 304 308 311 318 319 315 318 324 326 327 329 330 332 333
214 213 214 215 216 216 217 218 219 220 220 221 221 221 222 223 224 225 226 225 224 224 224 224 226 226 227 229 229 230 230 232 234 236 238 239 240 241 243 245 246 247 248 249 249 249 249 250 251 251 251 251 252 252 252 252 252 253 254 255 258 260 264 267 270 275 279 282 286 290 295 301 306 310 315 316 312 314 319 320 322 326 329 331 332
216 215 215 216 217 216 217 218 219 219 220 221 221 222 223 223 224 225 226 226 226 226 225 225 226 227 228 229 230 231 231 232 234 236 238 239 240 241 243 245 246 247 249 250 251 251 250 249 250 250 250 250 251 253 253 253 254 255 256 257 258 261 263 265 268 273 277 280 283 288 292 297 303 308 312 312 312 314 317 318 321 324 327 328 330
217 217 216 217 218 217 217 218 219 219 220 221 222 222 223 223 224 225 226 227 228 227 227 227 227 228 228 229 230 231 232 233 234 235 236 239 240 241 242 244 247 249 250 251 252 252 251 251 250 250 250 250 251 253 254 255 254 255 257 258 259 260 261 263 266 270 274 277 280 284 288 293 299 304 308 309 312 315 315 316 319 323 325 326 328
218 218 218 218 218 218 218 219 219 219 221 221 222 223 223 223 224 225 226 227 228 228 228 228 228 229 229 230 231 232 233 234 234 234 236 238 240 242 243 244 246 249 251 252 253 254 253 252 252 251 251 251 251 252 254 256 256 256 258 259 260 260 260 262 265 268 272 275 277 279 282 288 294 299 303 307 311 313 313 313 316 320 323 324 326
218 219 219 219 219 219 219 219 219 220 221 222 223 223 223 224 224 225 225 226 227 228 229 229 230 230 230 231 232 233 234 233 233 234 236 237 239 241 243 244 245 248 251 252 253 254 255 254 253 252 252 252 253 253 254 256 257 258 259 260 260 260 260 261 263 267 271 274 276 278 280 284 290 295 299 304 308 311 311 311 313 317 320 322 324
218 219 220 220 220 220 220 220 220 221 222 222 224 224 224 225 225 225 225 226 227 228 229 230 230 231 231 231 232 234 235 234 233 234 236 238 239 241 244 245 246 247 250 253 253 254 255 256 255 254 252 253 254 255 255 256 258 258 260 261 262 263 263 262 263 266 270 272 274 276 279 283 287 291 295 299 304 308 309 309 312 314 317 320 322
218 219 220 220 221 221 221 221 221 222 222 223 224 224 225 226 226 226 226 226 226 227 228 229 230 231 232 232 233 234 235 234 233 234 236 238 239 241 243 245 247 248 249 251 253 254 255 256 256 256 255 254 255 255 255 256 258 259 260 262 263 265 265 265 266 267 268 270 271 273 276 280 283 287 291 294 299 304 307 308 310 312 315 318 320
218 218 220 220 221 221 221 222 222 222 222 223 224 225 225 226 227 227 227 227 227 227 228 229 230 231 233 233 234 235 235 234 234 235 237 238 239 241 243 245 247 249 250 251 252 254 255 256 257 257 257 257 256 256 255 255 256 258 260 262 264 266 267 268 269 269 269 269 270 272 275 278 280 284 288 290 295 300 304 306 308 310 312 315 318
219 218 220 220 221 221 222 222 223 223 223 223 225 226 226 226 228 228 228 228 228 228 228 229 230 231 232 234 235 236 235 234 233 236 238 238 240 241 243 244 246 249 250 251 252 253 254 256 257 258 258 258 258 257 256 255 255 257 259 261 263 266 268 269 269 269 269 269 269 271 273 276 279 282 285 288 292 297 302 305 307 308 310 313 316
220 219 220 221 221 222 222 223 223 224 224 224 225 226 227 227 228 229 229 229 229 229 228 228 230 231 232 233 235 236 237 234 233 235 237 238 240 242 243 244 246 248 249 251 252 253 253 255 256 258 259 259 258 257 257 256 256 256 258 260 263 265 267 269 270 269 268 268 268 269 271 273 276 279 282 286 289 294 299 303 305 307 308 311 314
221 221 221 221 221 221 222 224 225 225 225 226 226 227 227 227 228 229 229 230 229 229 229 229 230 231 232 233 234 236 237 235 233 234 236 237 239 242 243 244 246 248 249 251 252 253 254 255 255 257 258 259 259 258 257 257 257 257 258 259 262 264 266 269 270 270 269 270 270 270 270 272 275 278 281 284 287 290 295 299 302 304 306 309 312
222 222 221 221 221 221 222 224 225 226 227 227 227 228 228 228 229 230 230 230 230 230 230 230 231 232 232 233 234 235 237 236 235 235 236 237 238 241 243 244 246 248 250 251 253 254 255 256 256 256 257 258 259 258 258 258 259 259 259 259 262 264 267 269 270 270 270 271 271 270 270 271 274 277 280 283 286 289 292 296 300 301 304 307 310
222 221 220 220 220 221 223 224 225 226 227 227 228 228 229 229 229 230 230 230 230 230 230 230 231 232 233 234 234 235 236 237 236 236 237 238 239 240 242 244 245 248 250 252 253 254 255 256 257 257 257 257 258 258 258 258 260 261 261 260 261 264 266 268 268 269 270 270 271 271 271 272 275 278 282 284 286 288 290 294 297 299 302 306 309
221 221 221 220 220 221 223 224 225 226 227 228 228 229 230 230 229 230 230 230 230 230 230 230 231 232 233 234 234 235 236 237 237 236 237 238 239 240 242 243 245 248 250 252 254 255 256 257 257 257 257 257 258 258 258 258 260 261 261 261 261 263 265 265 266 269 270 271 272 272 272 273 275 278 282 284 286 288 289 291 294 297 301 305 308
221 221 221 221 221 222 223 224 225 226 226 227 228 229 229 229 229 229 229 229 228 229 230 231 231 232 233 234 234 235 235 236 237 237 237 238 239 240 242 243 245 248 250 252 254 255 257 258 258 258 258 258 258 258 258 258 259 260 261 261 262 263 263 264 265 268 270 271 273 274 274 275 277 280 282 283 285 287 288 290 293 297 300 303 306
221 221 221 222 223 223 223 224 225 225 226 226 227 228 228 229 230 229 228 227 227 229 230 231 231 232 233 234 234 235 236 236 236 237 237 238 238 239 241 243 244 246 249 251 253 255 257 259 260 259 258 258 258 258 258 258 259 260 261 261 262 263 264 265 266 268 270 271 273 274 276 277 279 281 281 281 282 284 286 290 293 296 299 302 305
221 221 222 223 224 224 224 225 225 225 225 226 227 228 228 229 229 227 225 225 226 228 229 230 231 232 233 234 234 234 236 236 236 235 235 237 238 239 241 242 243 245 248 250 253 255 257 259 260 259 258 258 259 259 259 259 260 260 260 261 263 264 265 267 268 269 270 271 273 275 276 278 280 280 279 278 279 282 286 290 293 296 299 302 305
222 222 222 223 224 224 225 225 224 224 224 224 226 227 227 227 227 225 223 223 225 227 229 230 231 231 232 233 234 234 234 235 235 234 234 235 237 238 240 242 243 244 247 250 252 254 256 258 259 259 258 259 259 260 260 260 260 260 261 262 264 266 267 268 269 270 271 272 273 275 277 278 278 277 277 277 280 283 287 290 293 296 299 301 304
223 223 222 223 224 223 224 225 224 223 223 224 225 226 225 225 224 222 221 222 223 225 227 228 229 230 230 231 232 232 232 233 234 234 234 235 237 238 240 242 243 245 247 249 250 252 253 255 257 258 259 259 259 260 261 260 260 261 262 263 265 267 268 269 270 271 272 273 274 275 276 277 276 275 277 279 281 283 286 289 292 296 298 300 302
224 223 222 223 223 223 223 224 223 222 222 223 224 224 224 223 223 221 220 220 221 223 225 226 227 228 229 229 230 231 232 232 233 235 236 237 239 240 241 242 243 245 246 247 249 250 252 254 255 257 258 259 259 259 260 260 261 262 263 265 267 268 269 269 270 271 271 272 274 275 276 276 276 277 278 279 280 281 285 288 291 294 296 299 300
223 222 221 221 222 222 222 222 221 221 221 222 223 223 222 222 222 221 221 221 222 223 225 226 227 228 229 230 231 233 234 235 236 237 237 238 239 240 241 242 243 244 245 246 248 251 253 254 255 256 258 259 260 260 261 261 262 264 265 266 268 269 270 270 270 271 271 272 274 276 277 277 278 278 278 278 279 281 285 288 290 292 295 297 298
222 221 220 220 221 221 221 220 220 219 220 221 221 222 221 221 221 222 222 223 225 225 226 227 228 229 231 232 232 234 236 237 238 238 237 238 239 239 241 242 242 244 245 246 248 250 252 254 256 256 257 259 259 260 261 263 264 265 266 268 269 270 270 269 270 271 272 272 274 275 276 277 276 276 277 278 279 281 285 287 288 290 293 295 296
221 220 219 220 220 220 219 219 219 218 219 219 219 218 218 219 221 222 223 225 227 228 228 229 230 230 232 233 234 235 236 237 237 237 237 237 238 240 241 242 243 245 247 247 249 251 252 254 255 256 257 258 259 260 262 263 265 266 267 268 269 270 269 269 270 271 272 272 273 274 275 274 274 275 276 276 277 279 283 285 287 289 291 293 295
220 220 219 219 219 219 219 218 218 217 218 217 216 215 215 217 220 222 224 226 227 228 229 230 230 231 231 232 232 234 235 235 235 235 236 237 238 240 242 243 244 245 247 248 249 251 252 253 255 257 258 259 260 261 262 263 264 265 267 269 270 271 271 271 272 273 273 273 273 273 274 274 274 274 273 273 274 277 279 281 284 287 289 291 294
220 219 219 219 218 217 218 217 216 216 216 215 214 214 213 215 219 222 224 225 226 227 228 229 229 229 228 228 229 231 233 233 233 234 235 236 238 239 241 243 244 245 245 247 249 250 252 254 255 256 258 259 260 261 262 263 264 265 268 270 271 272 272 274 275 276 275 276 277 277 277 275 274 273 271 270 272 274 276 278 281 285 288 290 293
223 221 220 220 218 217 216 216 215 215 215 214 214 214 214 216 219 221 222 223 223 224 226 227 227 227 227 227 228 229 231 232 232 233 235 236 237 238 239 242 244 245 245 246 248 250 252 254 255 256 257 259 260 261 262 264 266 267 268 270 271 272 274 276 277 277 277 278 280 280 278 276 275 272 270 269 272 274 276 278 281 284 287 289 292
226 226 226 225 221 217 215 215 214 214 214 214 214 215 216 217 218 219 219 220 221 221 223 224 225 226 226 227 227 228 230 231 233 234 235 236 236 237 238 241 244 247 247 248 250 252 254 255 256 256 258 260 261 262 264 265 267 268 268 269 271 273 275 277 279 278 278 278 279 277 276 275 274 272 270 271 273 276 278 281 283 285 287 290 293
227 228 229 229 226 220 216 214 213 213 214 213 214 215 217 218 218 218 217 218 218 219 220 222 224 225 226 227 229 230 231 233 235 236 236 237 237 238 240 243 246 248 250 252 254 256 257 259 259 259 259 261 263 264 265 266 267 268 268 269 271 274 276 278 278 277 276 277 278 277 277 275 274 273 274 274 276 278 281 283 284 285 288 291 294
229 230 230 230 228 224 219 214 212 212 213 213 213 215 217 217 218 217 216 217 218 218 219 221 224 226 228 229 231 233 235 236 238 239 239 240 240 241 243 246 248 250 252 254 256 258 260 261 262 262 262 262 264 264 264 266 267 268 269 270 272 274 276 277 276 275 275 275 276 276 276 274 273 275 278 279 280 281 282 283 285 287 290 292 293
230 233 232 230 228 226 223 217 211 209 209 210 211 214 215 216 216 215 214 215 218 219 220 223 225 228 230 232 234 236 238 239 241 242 244 245 246 248 250 252 253 254 255 257 259 260 261 263 264 263 262 262 262 263 264 265 266 268 269 271 272 273 275 276 275 272 272 274 275 276 275 274 275 278 280 282 282 282 283 285 287 289 291 291 292
232 235 234 229 226 225 222 217 211 206 205 207 210 212 214 215 214 211 210 213 216 219 222 226 229 231 233 235 236 237 239 241 243 245 247 249 250 253 256 257 257 258 258 260 261 261 262 263 263 263 262 261 261 262 263 264 265 267 269 270 270 270 272 274 274 272 272 274 276 276 275 275 277 280 281 282 283 284 285 286 287 288 290 292 294
232 235 234 228 224 222 219 214 209 205 203 205 209 211 212 213 212 211 211 213 215 219 224 228 231 234 236 237 238 238 240 243 246 247 249 251 253 255 256 256 256 257 258 260 261 261 262 263 262 262 261 261 261 262 263 264 265 266 266 267 267 268 270 272 273 273 274 275 275 275 275 276 278 280 280 281 283 285 286 288 288 289 291 293 295
229 231 229 224 221 221 218 212 208 205 203 205 208 210 211 212 213 213 214 216 218 222 226 229 232 236 238 238 239 241 243 245 247 248 249 250 252 253 254 254 255 257 258 260 261 262 263 263 262 261 261 260 261 263 264 265 265 264 264 265 266 268 271 273 274 274 275 274 273 273 274 276 277 279 280 281 283 285 287 288 290 291 292 293 295
222 221 218 212 211 215 216 211 206 204 205 206 209 211 213 214 215 216 217 219 222 225 228 231 235 237 238 238 239 241 242 243 244 245 246 247 249 251 252 254 256 257 259 260 262 263 262 262 262 262 261 261 261 262 263 264 264 263 264 265 266 268 271 273 274 274 275 273 271 272 274 276 277 279 280 283 285 286 287 288 290 292 293 295 296
221 216 209 204 205 212 217 213 207 204 205 208 211 213 215 216 217 219 220 223 225 226 228 231 233 234 235 236 237 238 239 240 241 243 244 246 248 251 253 255 257 258 260 261 261 260 259 259 260 260 261 262 262 261 261 262 263 264 265 267 268 269 271 273 273 274 274 272 271 273 275 278 280 281 282 284 285 287 289 290 291 293 294 295 296
226 222 217 212 212 216 219 216 209 207 209 212 214 216 217 219 221 222 222 223 224 225 227 230 231 232 234 236 236 236 238 240 241 243 244 246 249 251 253 255 256 257 258 258 258 258 258 258 259 260 261 263 264 263 261 262 264 265 267 268 270 270 271 272 273 273 273 273 274 275 276 279 281 283 284 285 286 289 290 291 291 293 294 294 295
228 228 227 225 223 223 223 220 214 213 215 216 216 217 219 221 222 223 222 222 223 225 227 230 231 231 233 234 235 236 238 240 241 243 245 247 249 251 253 254 255 255 256 257 257 258 259 260 260 261 261 262 264 265 264 265 266 267 268 269 270 271 272 273 274 275 275 276 276 276 277 279 281 283 285 286 288 289 291 291 292 293 294 294 294
230 230 230 230 229 228 227 225 221 219 220 221 221 221 222 222 222 223 223 224 225 227 228 229 230 230 231 232 234 235 238 240 242 244 245 247 248 250 252 253 255 255 257 258 259 260 262 262 263 263 263 263 264 266 267 268 269 269 269 269 271 272 273 274 276 277 278 277 277 277 279 281 283 285 287 288 288 289 291 292 292 293 294 294 295
233 233 232 232 231 230 229 228 226 223 223 224 225 225 225 223 223 224 226 226 227 227 228 228 229 231 233 234 236 238 241 242 244 245 247 249 251 252 253 255 256 258 259 261 262 263 264 263 263 263 263 263 264 266 268 269 270 270 270 271 272 273 274 276 277 278 278 278 277 278 280 283 285 286 288 288 289 290 291 292 292 293 294 295 295
232 233 233 233 233 231 231 230 228 225 224 225 227 227 226 224 223 224 226 226 227 228 228 229 230 233 236 238 240 242 244 245 247 248 249 251 253 255 255 256 258 260 261 261 262 263 263 263 263 263 264 264 266 267 269 270 271 271 272 272 273 274 275 277 278 278 279 279 280 281 283 285 287 287 288 289 290 290 291 291 292 293 294 294 294
230 231 232 233 233 232 232 231 230 227 226 225 226 227 228 226 225 225 226 227 229 230 231 233 234 236 239 241 244 245 246 247 249 251 252 252 253 255 255 256 257 259 260 261 262 263 263 264 266 267 267 268 269 270 271 272 272 272 272 272 273 275 277 278 279 280 281 282 283 284 286 287 287 288 289 289 289 289 289 289 290 292 292 293 293
231 231 232 234 234 233 233 232 231 230 228 226 225 226 228 228 227 227 229 230 231 233 234 236 238 239 240 242 244 245 246 247 249 251 251 252 252 253 254 255 256 258 259 260 262 264 265 267 268 270 270 271 271 272 272 273 273 272 272 273 275 278 279 280 280 282 283 283 283 284 284 284 285 287 288 288 288 288 288 289 290 292 292 293 293
232 232 233 233 234 233 233 233 232 231 230 227 226 227 229 229 229 229 231 232 233 235 237 239 240 240 241 241 243 244 245 246 247 248 250 252 253 254 255 256 257 258 258 259 262 264 266 268 269 270 271 271 272 272 272 273 273 273 274 275 278 280 280 280 281 282 283 282 282 282 282 282 285 287 288 288 288 288 288 289 291 292 292 292 292
232 232 233 234 234 234 233 234 234 233 229 226 226 229 232 233 233 233 234 234 235 237 239 241 241 242 242 242 243 244 245 245 246 248 251 254 255 256 257 258 258 258 259 261 263 265 267 268 269 269 269 270 270 271 272 272 273 275 277 279 280 281 281 281 282 283 283 283 282 282 281 283 286 288 288 288 288 288 289 290 291 292 292 292 292